CW5066 Weather Reports


time (UTC)temp
F
wind
direction
speed
knots
gust
knots
rain 1hr
in
rain 24hr
in
rain mn
in
humidity
%
barometer
mb
20260831134517 55 0.0 1.7 0.00 0.08 0.00 53 1030.0
20260831133517 55 0.0 1.7 0.00 0.08 0.00 53 1029.8
20260831132516 54 315 0.9 1.7 0.00 0.08 0.00 54 1029.9
20260831131516 54 0.0 0.0 0.00 0.08 0.00 54 1029.8
20260831130517 54 0.0 0.0 0.00 0.08 0.00 54 1029.8
20260831125517 54 0.0 0.0 0.00 0.08 0.00 54 1029.7
20260831124518 54 0.0 0.9 0.00 0.08 0.00 54 1029.5
20260831123517 54 0.0 0.0 0.00 0.08 0.00 54 1029.9
20260831122536 54 0.0 0.9 0.00 0.08 0.00 54 1029.8
20260831121537 54 0.0 0.0 0.00 0.08 0.00 54 1029.7
20260831120517 54 180 0.9 1.7 0.00 0.08 0.00 54 1029.7
20260831115516 53 0.0 1.7 0.00 0.08 0.00 56 1029.4
20260831114516 53 90 0.9 1.7 0.00 0.08 0.00 56 1029.3
20260831113516 53 0 0.9 0.9 0.00 0.08 0.00 57 1029.5
20260831112516 53 0.0 0.9 0.00 0.08 0.00 57 1029.4
20260831111517 52 0.0 0.9 0.00 0.08 0.00 58 1029.2
20260831110516 52 68 0.9 0.9 0.00 0.08 0.00 59 1028.6
20260831105516 52 68 1.7 1.7 0.00 0.08 0.00 60 1028.7
20260831104517 52 68 0.9 1.7 0.00 0.08 0.00 60 1028.6
20260831103516 52 113 0.9 2.6 0.00 0.08 0.00 61 1027.2
20260831102516 52 90 0.9 1.7 0.00 0.08 0.00 61 1026.8
20260831101516 52 158 0.9 2.6 0.00 0.08 0.00 60 1026.6
20260831100556 52 90 0.9 1.7 0.00 0.08 0.00 61 1026.1
20260831095516 51 113 0.9 1.7 0.00 0.08 0.00 61 1025.8
20260831094516 52 0.0 0.9 0.00 0.08 0.00 61 1025.8
20260831093556 52 180 0.9 2.6 0.00 0.08 0.00 61 1024.6
20260831092516 51 68 0.9 2.6 0.00 0.08 0.00 61 1024.4
20260831091516 52 0.0 1.7 0.00 0.08 0.00 61 1025.0
20260831090516 52 225 0.9 2.6 0.00 0.08 0.00 60 1023.9
20260831085536 52 158 1.7 3.5 0.00 0.08 0.00 61 1023.9
20260831084516 52 180 1.7 3.5 0.00 0.08 0.00 61 1023.9
20260831083516 52 180 2.6 5.2 0.00 0.08 0.00 62 1023.4
20260831082536 52 180 1.7 3.5 0.00 0.08 0.00 62 1023.4
20260831081516 52 225 1.7 2.6 0.00 0.08 0.00 62 1023.5
20260831080536 52 248 1.7 3.5 0.00 0.08 0.00 61 1026.7
20260831075516 52 225 1.7 2.6 0.00 0.08 0.00 60 1026.9
20260831074516 52 0.0 2.6 0.00 0.08 0.00 61 1027.0
20260831073516 52 270 0.9 1.7 0.00 0.08 0.00 61 1028.4
20260831072516 52 225 1.7 2.6 0.00 0.08 0.00 62 1028.4
20260831071516 51 225 2.6 4.3 0.00 0.08 0.00 64 1028.4
20260831070516 51 203 2.6 3.5 0.00 0.08 0.00 63 1029.0
20260831065516 52 203 2.6 3.5 0.00 0.08 0.00 63 1028.9
20260831064515 51 180 1.7 2.6 0.00 0.08 0.00 64 1029.0
20260831063515 51 135 0.9 2.6 0.00 0.08 0.00 66 1029.1
20260831062515 50 135 1.7 2.6 0.00 0.08 0.00 68 1028.6
20260831061515 51 270 0.9 3.5 0.00 0.08 0.00 67 1029.0
20260831060516 51 203 0.9 1.7 0.00 0.08 0.00 67 1029.1
20260831055516 51 248 1.7 2.6 0.00 0.08 0.08 66 1029.2
20260831054516 51 225 0.9 2.6 0.00 0.08 0.08 68 1029.4
20260831053516 51 225 1.7 5.2 0.00 0.08 0.08 68 1029.5
20260831052516 51 225 2.6 5.2 0.00 0.08 0.08 69 1029.6
20260831051516 51 225 5.2 10.4 0.00 0.08 0.08 70 1029.7
20260831050516 52 203 3.5 7.0 0.00 0.08 0.08 70 1029.5
20260831045516 52 225 2.6 7.8 0.00 0.08 0.08 68 1029.5
20260831044516 53 225 7.0 12.2 0.00 0.08 0.08 67 1030.6
20260831043516 53 270 4.3 10.4 0.00 0.08 0.08 66 1030.2
20260831042516 54 270 3.5 8.7 0.00 0.08 0.08 64 1030.2
20260831041516 55 248 3.5 7.8 0.00 0.08 0.08 58 1029.9
20260831040516 55 248 2.6 7.8 0.00 0.08 0.08 58 1029.0
20260831035516 54 248 2.6 5.2 0.00 0.08 0.08 58 1028.1
20260831034516 54 225 1.7 4.3 0.00 0.08 0.08 59 1027.9
20260831033516 55 225 1.7 2.6 0.00 0.08 0.08 57 1027.8
20260831032516 55 203 1.7 3.5 0.00 0.08 0.08 58 1028.0
20260831031516 55 180 0.9 2.6 0.00 0.08 0.08 57 1028.0
20260831030515 55 0.0 1.7 0.00 0.08 0.08 57 1027.9
20260831025516 55 180 0.9 3.5 0.00 0.08 0.08 57 1027.7
20260831024516 55 135 0.9 1.7 0.00 0.08 0.08 57 1027.5
20260831023515 56 0.0 1.7 0.00 0.08 0.08 57 1027.6
20260831022536 56 225 1.7 3.5 0.00 0.08 0.08 56 1028.0
20260831021515 56 225 2.6 3.5 0.00 0.08 0.08 56 1027.6
20260831020515 56 225 2.6 5.2 0.00 0.08 0.08 57 1026.8
20260831015515 56 248 2.6 5.2 0.00 0.08 0.08 56 1026.7
20260831014535 57 225 2.6 5.2 0.00 0.08 0.08 56 1026.8
20260831013515 57 225 2.6 5.2 0.00 0.08 0.08 55 1027.6
20260831012516 57 248 3.5 8.7 0.00 0.08 0.08 54 1027.6
20260831011515 58 225 5.2 10.4 0.00 0.08 0.08 53 1027.8
20260831010515 58 225 6.1 13.0 0.00 0.08 0.08 53 1027.4
20260831005536 58 225 7.8 15.6 0.00 0.08 0.08 52 1027.3
20260831004515 58 203 8.7 14.8 0.00 0.08 0.08 51 1027.4
20260831003535 59 225 10.4 16.5 0.00 0.08 0.08 51 1027.4
20260831002516 59 225 8.7 13.9 0.00 0.08 0.08 50 1028.0
20260831001515 59 225 8.7 19.1 0.00 0.08 0.08 49 1028.1
20260831000515 60 225 9.6 15.6 0.00 0.08 0.08 48 1029.3
20260830235515 60 225 12.2 21.7 0.00 0.08 0.08 48 1029.3
20260830234517 60 225 13.9 20.0 0.00 0.08 0.08 47 1029.0
20260830233517 61 225 14.8 25.2 0.00 0.08 0.08 46 1027.5
20260830232517 62 225 14.8 23.5 0.00 0.08 0.08 45 1027.6
20260830231517 62 225 12.2 19.1 0.00 0.08 0.08 45 1027.4
20260830230517 61 225 12.2 20.0 0.00 0.08 0.08 47 1027.0
20260830225517 61 225 13.9 25.2 0.00 0.08 0.08 47 1026.8
20260830224517 60 225 13.0 19.1 0.00 0.08 0.08 50 1026.9
20260830223517 59 225 13.0 20.9 0.00 0.08 0.08 51 1026.8
20260830222517 58 225 13.9 22.6 0.00 0.08 0.08 54 1027.0
20260830221517 57 225 13.0 23.5 0.00 0.08 0.08 56 1026.3
20260830220517 57 225 14.8 22.6 0.00 0.08 0.08 58 1026.6
20260830215517 56 225 13.9 23.5 0.00 0.08 0.08 58 1025.8
20260830214517 55 225 15.6 24.3 0.00 0.08 0.08 59 1025.9
20260830213517 55 225 9.6 16.5 0.00 0.08 0.08 63 1026.3
20260830212517 55 225 6.1 13.9 0.00 0.08 0.08 73 1026.8
20260830211517 52 203 4.3 9.6 0.00 0.08 0.08 73 1025.9
20260830210516 52 225 8.7 18.2 0.04 0.08 0.08 74 1026.0
20260830205517 50 225 9.6 20.0 0.07 0.08 0.08 74 1025.2
20260830204536 50 225 9.6 18.2 0.08 0.08 0.08 77 1025.2
20260830203537 50 248 8.7 21.7 0.08 0.08 0.08 78 1024.1
20260830202536 49 225 2.6 7.0 0.08 0.08 0.08 81 1024.3
20260830201516 47 293 8.7 16.5 0.08 0.08 0.08 82 1024.1
20260830200516 50 270 11.3 21.7 0.04 0.04 0.04 74 1024.4
20260830195516 58 270 7.8 20.0 0.01 0.01 0.01 66 1026.6
20260830194517 57 225 1.7 4.3 0.00 0.00 0.00 67 1025.6
20260830193517 58 293 5.2 11.3 0.00 0.00 0.00 64 1025.2
20260830192517 57 293 2.6 7.8 0.00 0.00 0.00 66 1025.2
20260830191517 59 338 5.2 10.4 0.00 0.00 0.00 65 1025.8
20260830190517 63 293 7.0 16.5 0.00 0.00 0.00 46 1027.4
20260830185517 64 203 4.3 10.4 0.00 0.00 0.00 42 1027.4
20260830184516 64 203 7.0 11.3 0.00 0.00 0.00 41 1027.5
20260830183516 64 203 7.0 14.8 0.00 0.00 0.00 42 1027.6
20260830182536 65 203 6.1 13.0 0.00 0.00 0.00 42 1027.7
20260830181516 64 203 6.1 12.2 0.00 0.00 0.00 43 1027.9
20260830180516 64 203 8.7 15.6 0.00 0.00 0.00 42 1027.8
20260830175516 64 180 6.1 13.0 0.00 0.00 0.00 42 1028.0
20260830174516 63 203 3.5 7.8 0.00 0.00 0.00 47 1027.8
20260830173516 63 203 5.2 10.4 0.00 0.00 0.00 46 1027.9
20260830172536 64 180 5.2 12.2 0.00 0.00 0.00 45 1027.8
20260830171517 63 225 3.5 7.8 0.00 0.00 0.00 47 1027.8
20260830170516 63 203 2.6 7.0 0.00 0.00 0.00 48 1027.7
20260830165516 63 203 3.5 9.6 0.00 0.00 0.00 48 1027.8
20260830164516 62 180 6.1 12.2 0.00 0.00 0.00 50 1027.2
20260830163516 61 203 6.1 11.3 0.00 0.00 0.00 51 1026.7
20260830162536 60 203 8.7 14.8 0.00 0.00 0.00 53 1026.4
20260830161516 59 225 7.0 11.3 0.00 0.00 0.00 55 1025.6
20260830160536 58 225 7.0 14.8 0.00 0.00 0.00 56 1025.6
20260830155556 57 203 5.2 12.2 0.00 0.00 0.00 60 1025.3
20260830154516 56 203 2.6 5.2 0.00 0.00 0.00 65 1025.5
20260830153516 55 203 2.6 6.1 0.00 0.00 0.00 66 1024.8
20260830152556 55 203 3.5 7.8 0.00 0.00 0.00 66 1024.7
20260830151516 54 248 3.5 7.8 0.00 0.00 0.00 66 1024.7
20260830150516 54 270 1.7 7.0 0.00 0.00 0.00 68 1024.9
20260830145516 54 293 1.7 4.3 0.00 0.00 0.00 70 1025.0
20260830144536 54 225 2.6 7.8 0.00 0.00 0.00 60 1024.8
20260830143515 55 248 1.7 4.3 0.00 0.00 0.00 60 1024.5
20260830142515 55 225 0.9 2.6 0.00 0.00 0.00 60 1024.6
20260830141515 54 113 0.9 1.7 0.00 0.00 0.00 64 1023.7
20260830140515 54 0.0 1.7 0.00 0.00 0.00 64 1024.4
20260830135515 54 0.0 1.7 0.00 0.00 0.00 62 1024.4